When you browse on this site, cookies collect data to enhance your experience and personalize the content and advertising you see.
Visit our Privacy Policy to learn more. By continuing to use the site, you agree to this use of cookies and data.
  • In Österreich
  • Länderverzeichnis
  • Für 7 Tage
  • Wassertemperatur
  • Wetterkarte
  • News
  • Widgets
  • user-avatar
    Anmelden

    Stündliche Wetter Kawarna

    Heute, 28 Mai, Donnerstag

    Zeit Temperatur Niederschläge Wind Luftdruck Luftfeuchtigkeit
    00:00 +12°C° 0 mm 4 m/S 762 mmHg 87%
    01:00 +12°C° 0 mm 5 m/S 762 mmHg 88%
    02:00 +10°C° 0 mm 5 m/S 761 mmHg 89%
    03:00 +10°C° 0.1 mm 5 m/S 761 mmHg 91%
    04:00 +10°C° 0.1 mm 6 m/S 761 mmHg 92%
    05:00 +9°C° 0.1 mm 6 m/S 761 mmHg 94%
    06:00 +11°C° 0.1 mm 6 m/S 761 mmHg 90%
    07:00 +13°C° 0.1 mm 6 m/S 761 mmHg 85%
    08:00 +14°C° 0.1 mm 6 m/S 761 mmHg 81%
    09:00 +15°C° 0.5 mm 5 m/S 760 mmHg 77%
    10:00 +17°C° 0.5 mm 4 m/S 760 mmHg 73%
    11:00 +19°C° 0.5 mm 3 m/S 760 mmHg 69%
    12:00 +19°C° 0.7 mm 3 m/S 760 mmHg 67%
    13:00 +19°C° 0.7 mm 2 m/S 760 mmHg 66%
    14:00 +20°C° 0.7 mm 2 m/S 760 mmHg 64%
    15:00 +19°C° 0.4 mm 2 m/S 760 mmHg 66%
    16:00 +19°C° 0.4 mm 3 m/S 759 mmHg 68%
    17:00 +19°C° 0.4 mm 3 m/S 759 mmHg 70%
    18:00 +17°C° 0.2 mm 3 m/S 759 mmHg 74%
    19:00 +16°C° 0.2 mm 3 m/S 759 mmHg 78%
    20:00 +14°C° 0.2 mm 3 m/S 759 mmHg 83%
    21:00 +14°C° 0 mm 3 m/S 759 mmHg 83%
    22:00 +13°C° 0 mm 3 m/S 760 mmHg 83%
    23:00 +13°C° 0 mm 3 m/S 760 mmHg 83%

    Morgen, 29 Mai, Freitag

    Zeit Temperatur Niederschläge Wind Luftdruck Luftfeuchtigkeit
    00:00 +12°C° 0 mm 3 m/S 760 mmHg 83%
    01:00 +12°C° 0 mm 3 m/S 759 mmHg 83%
    02:00 +12°C° 0 mm 3 m/S 759 mmHg 84%
    03:00 +12°C° 0 mm 3 m/S 759 mmHg 84%
    04:00 +12°C° 0 mm 4 m/S 759 mmHg 84%
    05:00 +12°C° 0 mm 4 m/S 759 mmHg 85%
    06:00 +13°C° 0 mm 3 m/S 760 mmHg 79%
    07:00 +16°C° 0 mm 3 m/S 760 mmHg 74%
    08:00 +18°C° 0 mm 3 m/S 760 mmHg 69%
    09:00 +19°C° 0.3 mm 2 m/S 760 mmHg 66%
    10:00 +19°C° 0.3 mm 2 m/S 759 mmHg 63%
    11:00 +20°C° 0.3 mm 2 m/S 759 mmHg 60%
    12:00 +20°C° 0.6 mm 2 m/S 759 mmHg 62%
    13:00 +20°C° 0.6 mm 2 m/S 759 mmHg 63%
    14:00 +20°C° 0.6 mm 3 m/S 759 mmHg 64%
    15:00 +20°C° 0.4 mm 3 m/S 759 mmHg 66%
    16:00 +19°C° 0.4 mm 4 m/S 759 mmHg 69%
    17:00 +19°C° 0.4 mm 4 m/S 759 mmHg 72%
    18:00 +18°C° 0 mm 4 m/S 759 mmHg 74%
    19:00 +17°C° 0 mm 4 m/S 759 mmHg 77%
    20:00 +15°C° 0 mm 4 m/S 759 mmHg 80%
    21:00 +15°C° 0 mm 4 m/S 759 mmHg 82%
    22:00 +14°C° 0 mm 4 m/S 759 mmHg 83%
    23:00 +14°C° 0 mm 4 m/S 759 mmHg 84%

    übermorgen, 30 Mai, Samstag

    Zeit Temperatur Niederschläge Wind Luftdruck Luftfeuchtigkeit
    00:00 +13°C° 0 mm 4 m/S 759 mmHg 86%
    01:00 +13°C° 0 mm 3 m/S 759 mmHg 87%
    02:00 +12°C° 0 mm 3 m/S 759 mmHg 89%
    03:00 +13°C° 0 mm 2 m/S 759 mmHg 88%
    04:00 +13°C° 0 mm 2 m/S 759 mmHg 88%
    05:00 +14°C° 0 mm 1 m/S 759 mmHg 87%
    06:00 +15°C° 0 mm 2 m/S 759 mmHg 83%
    07:00 +16°C° 0 mm 2 m/S 759 mmHg 78%
    08:00 +18°C° 0 mm 3 m/S 759 mmHg 73%
    09:00 +19°C° 0.3 mm 2 m/S 759 mmHg 72%
    10:00 +19°C° 0.3 mm 2 m/S 759 mmHg 71%
    11:00 +20°C° 0.3 mm 2 m/S 759 mmHg 69%
    12:00 +20°C° 0.4 mm 2 m/S 759 mmHg 69%
    13:00 +20°C° 0.4 mm 3 m/S 759 mmHg 69%
    14:00 +21°C° 0.4 mm 4 m/S 759 mmHg 68%
    15:00 +20°C° 0.2 mm 4 m/S 759 mmHg 71%
    16:00 +20°C° 0.2 mm 5 m/S 758 mmHg 73%
    17:00 +20°C° 0.2 mm 6 m/S 758 mmHg 76%
    18:00 +19°C° 0.1 mm 5 m/S 758 mmHg 79%
    19:00 +17°C° 0.1 mm 5 m/S 758 mmHg 83%
    20:00 +16°C° 0.1 mm 5 m/S 758 mmHg 87%
    21:00 +15°C° 0 mm 4 m/S 758 mmHg 86%
    22:00 +15°C° 0 mm 4 m/S 758 mmHg 86%
    23:00 +15°C° 0 mm 4 m/S 758 mmHg 86%

    31 Mai, Sonntag

    Zeit Temperatur Niederschläge Wind Luftdruck Luftfeuchtigkeit
    00:00 +16°C° 0 mm 3 m/S 758 mmHg 84%
    01:00 +16°C° 0 mm 3 m/S 758 mmHg 82%
    02:00 +16°C° 0 mm 3 m/S 758 mmHg 81%
    03:00 +16°C° 0 mm 3 m/S 757 mmHg 81%
    04:00 +16°C° 0 mm 3 m/S 757 mmHg 81%
    05:00 +16°C° 0 mm 3 m/S 757 mmHg 81%
    06:00 +17°C° 0 mm 3 m/S 757 mmHg 77%
    07:00 +19°C° 0 mm 3 m/S 757 mmHg 73%
    08:00 +21°C° 0 mm 3 m/S 758 mmHg 68%
    09:00 +21°C° 0.3 mm 3 m/S 758 mmHg 66%
    10:00 +22°C° 0.3 mm 4 m/S 757 mmHg 64%
    11:00 +22°C° 0.3 mm 4 m/S 757 mmHg 62%
    12:00 +22°C° 0.3 mm 4 m/S 757 mmHg 63%
    13:00 +23°C° 0.3 mm 4 m/S 757 mmHg 63%
    14:00 +23°C° 0.3 mm 4 m/S 756 mmHg 64%
    15:00 +22°C° 0.3 mm 4 m/S 756 mmHg 68%
    16:00 +21°C° 0.3 mm 4 m/S 756 mmHg 71%
    17:00 +21°C° 0.3 mm 4 m/S 756 mmHg 75%
    18:00 +20°C° 0.1 mm 4 m/S 756 mmHg 78%
    19:00 +19°C° 0.1 mm 3 m/S 756 mmHg 80%
    20:00 +18°C° 0.1 mm 3 m/S 756 mmHg 83%
    21:00 +17°C° 0.1 mm 3 m/S 756 mmHg 82%
    22:00 +17°C° 0.1 mm 3 m/S 756 mmHg 81%
    23:00 +16°C° 0.1 mm 3 m/S 756 mmHg 81%

    1 Juni, Montag

    Zeit Temperatur Niederschläge Wind Luftdruck Luftfeuchtigkeit
    00:00 +16°C° 0.1 mm 3 m/S 756 mmHg 80%
    01:00 +16°C° 0.1 mm 3 m/S 756 mmHg 80%
    02:00 +17°C° 0.1 mm 3 m/S 756 mmHg 79%
    03:00 +16°C° 0.2 mm 3 m/S 756 mmHg 79%
    04:00 +15°C° 0.2 mm 4 m/S 756 mmHg 80%
    05:00 +14°C° 0.2 mm 4 m/S 756 mmHg 80%
    06:00 +15°C° 0.4 mm 4 m/S 756 mmHg 78%
    07:00 +17°C° 0.4 mm 3 m/S 756 mmHg 76%
    08:00 +17°C° 0.4 mm 3 m/S 756 mmHg 74%
    09:00 +19°C° 0 mm 3 m/S 756 mmHg 70%
    10:00 +20°C° 0 mm 3 m/S 756 mmHg 66%
    11:00 +21°C° 0 mm 3 m/S 757 mmHg 62%
    12:00 +21°C° 0.1 mm 4 m/S 756 mmHg 62%
    13:00 +21°C° 0.1 mm 4 m/S 756 mmHg 62%
    14:00 +22°C° 0.1 mm 4 m/S 756 mmHg 63%
    15:00 +21°C° 0.1 mm 4 m/S 756 mmHg 67%
    16:00 +20°C° 0.1 mm 4 m/S 756 mmHg 71%
    17:00 +19°C° 0.1 mm 5 m/S 756 mmHg 76%
    18:00 +18°C° 0 mm 4 m/S 756 mmHg 79%
    19:00 +17°C° 0 mm 3 m/S 756 mmHg 82%
    20:00 +16°C° 0 mm 2 m/S 756 mmHg 85%
    21:00 +16°C° 0 mm 2 m/S 756 mmHg 84%
    22:00 +16°C° 0 mm 1 m/S 756 mmHg 83%
    23:00 +16°C° 0 mm 1 m/S 756 mmHg 82%

    2 Juni, Dienstag

    Zeit Temperatur Niederschläge Wind Luftdruck Luftfeuchtigkeit
    00:00 +16°C° 0 mm 1 m/S 756 mmHg 82%
    01:00 +16°C° 0 mm 1 m/S 756 mmHg 82%
    02:00 +15°C° 0 mm 0 m/S 756 mmHg 82%
    03:00 +15°C° 0 mm 0 m/S 756 mmHg 81%
    04:00 +16°C° 0 mm 1 m/S 756 mmHg 81%
    05:00 +16°C° 0 mm 1 m/S 756 mmHg 80%
    06:00 +18°C° 0 mm 1 m/S 756 mmHg 77%
    07:00 +19°C° 0 mm 1 m/S 757 mmHg 75%
    08:00 +19°C° 0 mm 2 m/S 757 mmHg 72%
    09:00 +19°C° 0.1 mm 2 m/S 757 mmHg 71%
    10:00 +20°C° 0.1 mm 2 m/S 757 mmHg 69%
    11:00 +21°C° 0.1 mm 2 m/S 758 mmHg 67%
    12:00 +21°C° 0.1 mm 2 m/S 757 mmHg 66%
    13:00 +21°C° 0.1 mm 2 m/S 757 mmHg 65%
    14:00 +21°C° 0.1 mm 2 m/S 757 mmHg 64%
    15:00 +21°C° 0.1 mm 2 m/S 757 mmHg 65%
    16:00 +20°C° 0.1 mm 3 m/S 756 mmHg 67%
    17:00 +20°C° 0.1 mm 3 m/S 756 mmHg 68%
    18:00 +19°C° 0 mm 2 m/S 756 mmHg 74%
    19:00 +18°C° 0 mm 2 m/S 756 mmHg 80%
    20:00 +16°C° 0 mm 2 m/S 756 mmHg 86%
    21:00 +16°C° 0 mm 2 m/S 756 mmHg 86%
    22:00 +16°C° 0 mm 1 m/S 757 mmHg 87%
    23:00 +16°C° 0 mm 1 m/S 757 mmHg 87%
    Mehr zeigen